This demonstration page uses our WeatherBlox Daily Observations layout. Learn more.

Left ArrowRight Arrow

Hourly Observations for February 22, 2019

Temp ( °F °C ) Dew Point ( °F °C ) Humidity (%) Winds ( mph kmh ) Pressure ( in mb ) Visibility ( mi km ) Precip ( " mm )
12:02 am 00:02 Cloudy with Light Rain 55 12.8 55 12.8 100 100 Calm 30.11 1020 7 11 0.01 0.25
12:42 am 00:42 Cloudy 54 12.2 54 12.2 100 100 NW 6 9 30.11 1020 10 16 0.01 0.25
12:53 am 00:53 Cloudy 54 12.2 54 12.2 100 100 N 3 6 30.10 1019 10 16 0.01 0.25
1:53 am 01:53 Cloudy 54 12.2 54 12.2 100 100 Calm 30.09 1019 10 16 0.00 0.00
2:53 am 02:53 Cloudy 54 12.2 54 12.2 100 100 NNW 3 6 30.09 1019 10 16 0.00 0.00
3:53 am 03:53 Cloudy 53 11.7 53 11.7 100 100 NW 3 6 30.10 1019 10 16 0.00 0.00
4:09 am 04:09 Cloudy 53 11.7 53 11.7 100 100 Calm 30.11 1020 10 16 0.00 0.00
4:53 am 04:53 Cloudy 53 11.7 53 11.7 100 100 NNW 5 7 30.11 1020 7 11 0.00 0.00
5:31 am 05:31 Cloudy with Mist and Fog 53 11.7 53 11.7 100 100 Calm 30.13 1020 5 8 0.00 0.00
5:53 am 05:53 Cloudy with Mist and Fog 53 11.7 53 11.7 100 100 Calm 30.12 1020 3 5 0.00 0.00
6:26 am 06:26 Cloudy with Mist and Fog 53 11.7 53 11.7 100 100 Calm 30.14 1021 4 6 0.00 0.00
6:42 am 06:42 Cloudy with Mist and Fog 53 11.7 53 11.7 100 100 Calm 30.14 1021 2 3 0.00 0.00
6:53 am 06:53 Cloudy with Mist and Fog 52 11.1 52 11.1 100 100 Calm 30.14 1021 1 2 0.00 0.00
7:12 am 07:12 Cloudy with Mist and Fog 52 11.1 52 11.1 100 100 WNW 3 6 30.16 1021 1 2 0.00 0.00
7:30 am 07:30 Cloudy with Mist and Fog 52 11.1 52 11.1 100 100 Calm 30.16 1021 3 4 0.00 0.00
7:46 am 07:46 Cloudy with Mist and Fog 52 11.1 52 11.1 100 100 Calm 30.15 1021 2 2 0.00 0.00
7:53 am 07:53 Cloudy with Mist and Fog 53 11.7 53 11.7 100 100 Calm 30.14 1021 2 2 0.00 0.00
8:21 am 08:21 Cloudy with Mist and Fog 53 11.7 53 11.7 100 100 Calm 30.15 1021 2 3 0.00 0.00
8:29 am 08:29 Cloudy with Mist and Fog 53 11.7 53 11.7 100 100 Calm 30.16 1021 2 2 0.00 0.00
8:49 am 08:49 Cloudy with Mist and Fog 54 12 54 12 100 100 Calm 30.16 1021 1 1 0.00 0.00
8:53 am 08:53 Cloudy with Fog 53 11.7 53 11.7 100 100 Calm 30.16 1021 1 1 0.00 0.00
9:40 am 09:40 Cloudy with Mist and Fog 54 12.2 54 12.2 100 100 Calm 30.17 1022 1 2 0.00 0.03
9:53 am 09:53 Cloudy with Mist and Fog 54 12.2 54 12.2 100 100 Calm 30.16 1021 2 2 0.00 0.03
10:07 am 10:07 Cloudy with Fog 54 12.2 54 12.2 100 100 Calm 30.17 1022 1 1 0.00 0.00
10:26 am 10:26 Cloudy with Mist and Fog 55 12.8 55 12.8 100 100 Calm 30.18 1022 1 1 0.00 0.00
10:39 am 10:39 Cloudy with Fog 55 12.8 55 12.8 100 100 Calm 30.18 1022 1 1 0.00 0.00
10:53 am 10:53 Cloudy with Fog 56 13.3 56 13.3 100 100 VRB 3 6 30.18 1022 1 1 0.00 0.00
11:15 am 11:15 Mostly Cloudy with Fog 56 13.3 56 13.3 100 100 N 3 6 30.19 1022 0 0 0.00 0.00
11:26 am 11:26 Mostly Cloudy with Fog 56 13.3 56 13.3 100 100 NNE 3 6 30.19 1022 1 1 0.00 0.00
11:53 am 11:53 Cloudy with Fog 56 13.3 56 13.3 100 100 NE 6 9 30.18 1022 1 1 0.00 0.00
12:05 pm 12:05 Cloudy with Mist and Fog 56 13.3 56 13.3 100 100 NE 5 7 30.19 1022 1 1 0.00 0.00
12:53 pm 12:53 Cloudy with Mist and Fog 58 14.4 58 14.4 100 100 N 5 7 30.17 1022 1 2 0.00 0.00
1:31 pm 13:31 Cloudy with Mist and Fog 56 13.3 56 13.3 100 100 NE 17 28 30.17 1022 5 8 0.00 0.00
1:53 pm 13:53 Cloudy with Mist and Fog 54 12.2 54 12.2 100 100 NE 14 22 30.16 1022 5 8 0.00 0.00
2:53 pm 14:53 Cloudy 54 12.2 53 11.7 97 97 NE 13 20 30.17 1022 10 16 0.00 0.00
3:53 pm 15:53 Cloudy 54 12.2 53 11.7 97 97 NE 13 20 30.18 1022 10 16 0.00 0.00
4:53 pm 16:53 Cloudy 53 11.7 52 11.1 96 96 ENE 9 15 30.18 1022 10 16 0.00 0.00
5:53 pm 17:53 Cloudy 53 11.7 52 11.1 96 96 ENE 13 20 30.19 1022 10 16 0.00 0.00
6:53 pm 18:53 Cloudy 52 11.1 52 11.1 100 100 ENE 12 19 30.21 1023 9 14 0.00 0.00
7:53 pm 19:53 Cloudy 52 11.1 51 10.6 97 97 E 12 19 30.21 1023 10 16 0.00 0.00
8:53 pm 20:53 Cloudy 52 11.1 51 10.6 97 97 ENE 8 13 30.22 1023 10 16 0.00 0.00
9:53 pm 21:53 Cloudy 52 11.1 52 11.1 100 100 ENE 8 13 30.23 1024 10 16 0.00 0.00
10:53 pm 22:53 Cloudy 52 11.1 51 10.6 97 97 E 9 15 30.22 1024 9 14 0.00 0.00
11:53 pm 23:53 Cloudy 51 10.6 51 10.6 100 100 ENE 6 9 30.22 1023 10 16 0.00 0.00

Powered by AerisWeather